Location: Killam
(52.7910°N, 111.8608°W)
Time: 12:41:17
(UTC+00:00)

BlueWalker 3 - Pass Details

Date: 26 January 2026
Orbit: 450 x 461 km, 53.2° (Epoch: 11 February)

Event Time Altitude Azimuth Distance (km) Brightness Sun altitude
Rises 02:00:57 0° 243° (WSW) 2,453 6.8 -18.0°
Reaches altitude 10° 02:03:05 10° 240° (WSW) 1,581 5.5 -18.3°
Maximum altitude 02:06:35 62° 160° (SSE) 513 1.8 -18.8°
Enters shadow 02:07:00 56° 123° (ESE) 541 1.7 -18.9°
